EW8748 Weather Reports


Display with metric or nautical units.
time (UTC)temp
F
wind
direction
speed
MPH
gust
MPH
rain 1hr
in
rain 24hr
in
rain mn
in
humidity
%
barometer
mb
20260507173023 58 96 7.0 12.0 0.00 0.00 0.00 91 1010.1
20260507172515 58 87 6.0 13.0 0.00 0.00 0.00 91 1010.0
20260507172022 58 104 7.0 15.0 0.00 0.00 0.00 91 1009.9
20260507171515 58 56 9.0 15.0 0.00 0.00 0.00 90 1009.9
20260507165515 58 110 7.0 13.0 0.00 0.00 0.00 90 1010.1
20260507164022 58 81 9.0 16.0 0.00 0.00 0.00 89 1009.9
20260507163515 58 48 8.0 16.0 0.00 0.00 0.00 89 1009.9
20260507163022 58 104 9.0 15.0 0.00 0.00 0.00 89 1010.1
20260507162515 58 85 8.0 15.0 0.00 0.00 0.00 89 1010.3
20260507162022 58 81 10.0 16.0 0.00 0.00 0.00 89 1010.3
20260507161515 58 76 9.0 18.0 0.00 0.00 0.00 89 1010.1
20260507161022 58 67 8.0 17.0 0.00 0.00 0.00 89 1010.1
20260507160514 58 97 8.0 13.0 0.00 0.00 0.00 89 1010.0
20260507160014 58 102 10.0 16.0 0.00 0.00 0.00 88 1010.0
20260507155514 58 83 7.0 20.0 0.00 0.00 0.00 88 1010.2
20260507154514 58 50 10.0 23.0 0.00 0.00 0.00 88 1009.8
20260507154022 58 99 10.0 17.0 0.00 0.00 0.00 88 1009.6
20260507151022 59 103 12.0 20.0 0.00 0.00 0.00 87 1009.8
20260507145022 59 91 9.0 21.0 0.00 0.00 0.00 87 1009.7
20260507142022 58 122 14.0 26.0 0.00 0.00 0.00 87 1009.3
20260507141514 58 122 13.0 23.0 0.00 0.00 0.00 87 1009.3
20260507140514 58 91 14.0 23.0 0.00 0.00 0.00 87 1009.6
20260507132024 58 49 14.0 21.0 0.00 0.00 0.00 87 1009.7
20260507131514 58 116 12.0 26.0 0.00 0.00 0.00 87 1009.8
20260507130514 58 79 14.0 26.0 0.00 0.00 0.00 87 1010.1
20260507125514 58 90 16.0 25.0 0.00 0.00 0.00 87 1009.9
20260507125023 58 45 13.0 26.0 0.00 0.00 0.00 86 1009.9
20260507124515 58 110 11.0 24.0 0.00 0.00 0.00 86 1010.1
20260507124022 58 68 12.0 21.0 0.00 0.00 0.00 87 1010.1
20260507115022 58 185 18.0 28.0 0.00 0.00 0.00 85 1009.8
20260507114514 58 120 14.0 24.0 0.00 0.00 0.00 85 1009.9
20260507114022 58 122 15.0 30.0 0.00 0.00 0.00 84 1009.9
20260507113023 58 95 13.0 21.0 0.00 0.00 0.00 84 1009.8
20260507110515 58 101 14.0 25.0 0.00 0.00 0.00 83 1010.1
20260507110015 58 110 15.0 32.0 0.00 0.00 0.00 83 1010.2
20260507105022 59 67 13.0 24.0 0.00 0.00 0.00 83 1010.3
20260507104514 59 80 14.0 26.0 0.00 0.00 0.00 82 1010.1
20260507103514 59 24 15.0 24.0 0.00 0.00 0.00 81 1010.3
20260507103027 59 91 15.0 28.0 0.00 0.00 0.00 81 1010.4
20260507102514 59 70 15.0 25.0 0.00 0.00 0.00 82 1010.5
20260507100514 60 105 16.0 25.0 0.00 0.00 0.00 80 1010.6
20260507100014 60 52 17.0 28.0 0.00 0.00 0.00 80 1010.6
20260507095021 60 106 18.0 29.0 0.00 0.00 0.00 79 1010.7
20260507093023 60 55 14.0 26.0 0.00 0.00 0.00 79 1010.8
20260507091513 60 76 16.0 24.0 0.00 0.00 0.00 80 1011.1
20260507091021 60 102 14.0 28.0 0.00 0.00 0.00 80 1011.0
20260507085022 60 83 16.0 26.0 0.00 0.00 0.00 81 1010.9
20260507083513 59 45 13.0 21.0 0.00 0.00 0.00 82 1011.1
20260507082515 60 95 15.0 30.0 0.00 0.00 0.00 80 1010.9
20260507081513 60 90 16.0 26.0 0.00 0.00 0.00 81 1010.7
20260507081021 60 95 16.0 26.0 0.00 0.00 0.00 81 1010.6
20260507080016 59 97 16.0 26.0 0.00 0.00 0.00 82 1010.5
20260507075022 59 117 13.0 29.0 0.00 0.00 0.00 83 1010.4
20260507074021 59 96 14.0 25.0 0.00 0.00 0.00 83 1010.5
20260507065514 57 49 13.0 26.0 0.00 0.00 0.00 88 1011.1
20260507064513 57 71 15.0 28.0 0.00 0.00 0.00 90 1011.1
20260507063513 57 108 14.0 21.0 0.00 0.00 0.00 92 1011.2
20260507063021 56 73 13.0 26.0 0.00 0.00 0.00 92 1011.3
20260507062513 56 108 14.0 21.0 0.00 0.00 0.00 92 1011.2
20260507060515 56 108 12.0 20.0 0.00 0.00 0.00 93 1010.9
20260507060014 56 97 11.0 26.0 0.00 0.00 0.00 93 1011.0
20260507055514 56 98 14.0 28.0 0.00 0.00 0.00 93 1010.9
20260507055021 56 83 13.0 21.0 0.00 0.00 0.00 94 1011.0
20260507054513 56 88 13.0 24.0 0.00 0.00 0.00 93 1011.3
20260507053021 56 97 11.0 22.0 0.00 0.00 0.00 93 1011.5
20260507052515 55 124 12.0 25.0 0.00 0.00 0.00 93 1011.4
20260507052021 55 81 10.0 23.0 0.00 0.00 0.00 93 1011.4
20260507050513 55 88 13.0 22.0 0.00 0.00 0.00 94 1011.2
20260507050014 55 146 13.0 20.0 0.00 0.00 0.00 94 1011.3
20260507045021 55 29 12.0 22.0 0.00 0.00 0.00 94 1011.4
20260507044514 55 86 12.0 20.0 0.00 0.00 0.00 94 1011.6
20260507043513 55 39 11.0 23.0 0.00 0.00 0.00 94 1011.3
20260507043021 55 120 13.0 20.0 0.00 0.00 0.00 93 1011.3
20260507042021 55 115 12.0 26.0 0.00 0.00 0.00 93 1011.3
20260507041513 55 91 11.0 21.0 0.00 0.00 0.00 93 1011.4
20260507034513 55 103 11.0 20.0 0.00 0.00 0.00 92 1011.5
20260507034022 55 122 10.0 18.0 0.00 0.00 0.00 92 1011.7
20260507033514 55 97 7.0 14.0 0.00 0.00 0.00 92 1011.8
20260507032513 55 85 12.0 20.0 0.00 0.00 0.00 92 1012.0
20260507032020 55 67 10.0 18.0 0.00 0.00 0.00 92 1012.0
20260507024513 55 35 9.0 15.0 0.00 0.00 0.00 92 1012.4
20260507023019 55 85 9.0 15.0 0.00 0.00 0.00 93 1012.4
20260507022020 55 108 6.0 14.0 0.00 0.00 0.00 93 1012.4
20260507020513 55 97 9.0 14.0 0.00 0.00 0.00 93 1012.2
20260507015513 55 126 7.0 14.0 0.00 0.00 0.00 93 1012.3
20260507013021 55 87 6.0 12.0 0.00 0.00 0.00 93 1012.2
20260507011513 55 73 7.0 15.0 0.00 0.00 0.00 93 1012.0
20260507011019 55 39 7.0 14.0 0.00 0.00 0.00 93 1012.0
20260507010513 55 79 7.0 14.0 0.00 0.00 0.00 93 1012.0
20260507010013 55 82 9.0 13.0 0.00 0.00 0.00 93 1012.1
20260507005513 55 92 6.0 14.0 0.00 0.00 0.00 93 1012.2
20260507004019 55 64 8.0 14.0 0.00 0.00 0.00 92 1012.3
20260507003512 55 66 7.0 14.0 0.00 0.00 0.00 92 1012.5
20260507003021 55 80 9.0 14.0 0.00 0.00 0.00 92 1012.4
20260507002513 55 112 7.0 15.0 0.00 0.00 0.00 92 1012.5
20260507001512 55 119 6.0 12.0 0.00 0.00 0.00 92 1012.8
20260507001020 55 73 6.0 12.0 0.00 0.00 0.00 92 1013.0
20260507000513 56 89 4.0 8.0 0.00 0.00 0.00 92 1013.1
20260506235513 56 79 5.0 13.0 0.00 0.00 0.00 92 1013.1
20260506235019 56 115 7.0 15.0 0.00 0.00 0.00 92 1013.1
20260506234019 56 92 6.0 12.0 0.00 0.00 0.00 92 1013.2
20260506225514 56 123 7.0 15.0 0.00 0.00 0.00 91 1013.9
20260506224513 56 79 7.0 13.0 0.00 0.00 0.00 91 1013.8
20260506224019 56 69 7.0 13.0 0.00 0.00 0.00 91 1013.7
20260506223513 56 110 7.0 15.0 0.00 0.00 0.00 91 1013.5
20260506220513 56 108 7.0 13.0 0.00 0.00 0.00 91 1013.6
20260506215512 56 80 7.0 14.0 0.00 0.00 0.00 91 1013.7
20260506214019 56 109 8.0 13.0 0.00 0.00 0.00 91 1014.0
20260506213512 56 114 6.0 12.0 0.00 0.00 0.00 91 1014.1
20260506213019 56 80 6.0 12.0 0.00 0.00 0.00 91 1014.0
20260506212019 56 70 7.0 12.0 0.00 0.00 0.00 91 1014.1
20260506211513 56 107 6.0 13.0 0.00 0.00 0.00 91 1014.2
20260506204512 56 105 7.0 13.0 0.00 0.00 0.00 91 1013.8
20260506202513 56 110 6.0 12.0 0.00 0.00 0.00 92 1013.8
20260506201512 57 110 7.0 12.0 0.00 0.00 0.00 92 1013.6
20260506200512 57 88 8.0 14.0 0.00 0.00 0.00 92 1013.3
20260506200012 57 66 10.0 16.0 0.00 0.00 0.00 92 1013.3
20260506195513 57 106 6.0 12.0 0.00 0.00 0.00 92 1013.2
20260506195020 57 37 6.0 13.0 0.00 0.00 0.00 93 1013.1
20260506194019 57 101 10.0 20.0 0.00 0.00 0.00 92 1013.0
20260506193020 57 97 9.0 17.0 0.00 0.00 0.00 92 1012.9
20260506192021 57 55 10.0 17.0 0.00 0.00 0.00 92 1012.3
20260506191514 57 57 11.0 20.0 0.00 0.00 0.00 92 1012.3
20260506191019 57 95 12.0 22.0 0.00 0.00 0.00 92 1012.1
20260506185513 57 73 12.0 18.0 0.00 0.00 0.00 91 1011.5
20260506185019 58 72 10.0 15.0 0.00 0.00 0.00 91 1012.0
20260506184512 58 85 12.0 18.0 0.00 0.00 0.00 90 1012.2
20260506184019 58 80 11.0 17.0 0.00 0.00 0.00 90 1012.6
20260506183514 58 56 10.0 17.0 0.00 0.00 0.00 89 1012.8
20260506183020 58 56 9.0 14.0 0.00 0.00 0.00 89 1012.9
20260506181512 59 121 8.0 16.0 0.00 0.00 0.00 87 1013.2
20260506181020 59 55 7.0 15.0 0.00 0.00 0.00 87 1013.2
20260506175020 60 86 8.0 16.0 0.00 0.00 0.00 83 1013.7